Regional Weather Roundup
Issued by NWS Northern Indiana

Home | Current Version | Previous Version | Graphics & Text | Print | Product List | Glossary On
Versions: 1 2 3 4 5 6 7 8 9 10 11 12 13 14 15 16 17 18 19 20 21 22 23 24 25 26 27 28 29 30 31 32 33 34 35 36 37 38 39 40 41 42 43 44 45 46 47 48 49 50
543
ASUS43 KIWX 010110
RWRIWX

KIWX WEATHER ROUNDUP
NATIONAL WEATHER SERVICE NORTHERN INDIANA
900 PM EDT SAT APR 30 2016

NOTE: "FAIR" INDICATES FEW OR NO CLOUDS BELOW 12,000 FEET WITH NO
SIGNIFICANT WEATHER AND/OR OBSTRUCTIONS TO VISIBILITY.

* THESE STATIONS ARE NOT UNDER NWS QUALITY CONTROL. THEY ALSO MAY NOT
  REPORT WEATHER SUCH AS PRECIPITATION OR FOG.

INZ001>027-010200-
NORTHERN INDIANA

CITY           SKY/WX    TMP DP  RH WIND       PRES   REMARKS
GARY*          RAIN      48  48 100 E14       29.91S
VALPARAISO     CLOUDY    48  47  96 NE13      29.89S FOG
MICHIGAN CITY* RAIN      46  46 100 E8        29.91S
LAPORTE*       LGT RAIN N/A N/A N/A E12       29.91R
KNOX*          CLOUDY    46  46 100 NE6       29.89R
SOUTH BEND     LGT RAIN  47  46  97 E10G18    29.92R
GOSHEN         RAIN      48  45  89 E10       29.91S FOG
MONTICELLO*    DRIZZLE   52  48  87 E5        29.84S
LOGANSPORT*    DRIZZLE   50  50 100 E7        29.86S
ROCHESTER*     LGT RAIN  52  52 100 E7        29.88S
WARSAW*        LGT RAIN  46  46 100 E8        29.89S
ANGOLA*        CLOUDY    46  36  66 E12       29.92R
FORT WAYNE     LGT RAIN  50  48  93 E13       29.90F FOG
HUNTINGTON*    CLOUDY   N/A N/A N/A E7        29.89S
PERU/GRISSOM   CLOUDY    53  53 100 E8        29.84S FOG
MARION*        CLOUDY    54  53  95 E6        29.86F

$$
INZ028>050-010200-
CENTRAL INDIANA

CITY           SKY/WX    TMP DP  RH WIND       PRES   REMARKS
LAFAYETTE      LGT RAIN  55  54  96 E6        29.83S FOG
KOKOMO*        CLOUDY    54  50  87 SE9       29.85S
MUNCIE*        CLOUDY    59  55  87 SE7       29.86F
INDIANAPOLIS   CLOUDY    61  58  90 S7        29.84R

$$
MIZ043>046-050>051-056>058-064>065-071>073-077>080-010200-
SOUTHWEST LOWER MICHIGAN

CITY           SKY/WX    TMP DP  RH WIND       PRES   REMARKS
BATTLE CREEK   LGT RAIN  48  45  89 E10       29.96F FOG
BENTON HARBOR  RAIN      49  46  90 E8        29.93R FOG
COLDWATER*     LGT RAIN  47  46  95 E12G18    29.94R
HILLSDALE*     LGT RAIN  46  46 100 E17       29.94F
HOLLAND        RAIN      48  44  86 E13       29.98S
GRAND RAPIDS   LGT RAIN  49  45  86 E13       29.99F
KALAMAZOO      LGT RAIN  49  45  86 E9        29.94F FOG
STURGIS*       LGT RAIN  46  45  96 E10       29.92S
THREE RIVERS*  MIX PCPN  48  47  96 E12G17    29.93S

$$
OHZ001>008-015>018-024>025-010200-
NORTHWEST OHIO

CITY           SKY/WX    TMP DP  RH WIND       PRES   REMARKS
WAUSEON*       LGT RAIN  46  46 100 NE14      29.95F
DEFIANCE       LGT RAIN  49  46  90 E8        29.95S FOG
FINDLAY        LGT RAIN  51  46  83 E12       29.92F
TOLEDO EXPRESS LGT RAIN  47  46  97 NE14G22   29.96F FOG
TOLEDO METCALF LGT RAIN  48  45  89 NE12      29.98F FOG
LIMA           CLOUDY    52  51  97 E14       29.91F

$$
AND FOR LAKE MICHIGAN COASTAL AND OPEN LAKE BUOY OBSERVATIONS

STATION/POSITION TEMP    WIND        PRES    VSBY  WAVE
                 AIR SEA DIR/SP/G                  HT/PER
                 (F)     (DEG/KT/KT) (MB)    (MI)  (FT/S)
CALUMET HARBOR    45                 1012.5
MICHIGAN CITY     48      50/ 11/ 14   N/A
BURNS HARBOR      49      50/ 14/ 15 1012.9S
SAINT JOSEPH      48      10/  3/  5 1013.9R
SOUTH LAKE BUOY   42 40   30/ 10/ 12 1015.8R         1/ 3
4 MI NW BRIDGMAN  48 47                N/A           2/ 3

$$
&&




USA.gov is the U.S. government's official web portal to all federal, state and local government web resources and services.